University AP, Davis, CA, CA

8:18 AM PST on December 06, 2019 (GMT -0800)
University AP, Davis, CA

Weather History for KEDU - October, 2019

Change the Weather History Date:

Saturday, October 19, 2019

  Actual Average (KSMF) Record (KSMF)
Temperature  
Mean Temperature 60 °F -  
Max Temperature 75 °F 77 °F 91 °F (1991)
Min Temperature 46 °F 48 °F 38 °F (1969)
Degree Days  
Heating Degree Days 4    
Growing Degree Days 10 (Base 50)    
Moisture  
Dew Point 50 °F    
Average Humidity 72    
Maximum Humidity 93    
Minimum Humidity 47    
Precipitation  
Precipitation 0.00 in - - ()
Sea Level Pressure  
Sea Level Pressure 30.03 in    
Wind  
Wind Speed 4 mph ()    
Max Wind Speed 10 mph    
Max Gust Speed -    
Visibility 9.9 miles    
Events      
Averages and records for this station are not official NWS values.
T = Trace of Precipitation, MM = Missing Value Source: Averaged Metar Reports

Daily Weather History Graph

Daily Weather History Graph

Search for Another Location

Airport or City:

Astronomy

Oct. 19, 2019 Rise Set
Actual Time 7:20 AM PDT 6:23 PM PDT
Civil Twilight 6:53 AM PDT 6:50 PM PDT
Nautical Twilight 6:22 AM PDT 7:21 PM PDT
Astronomical Twilight 5:51 AM PDT 7:51 PM PDT
Moon 10:40 PM PDT (10/19) 12:54 PM PDT (10/19)
Length of Visible Light 11h 57m
Length of Day
11h 03m
Waning Gibbous, 68% of the Moon is Illuminated
Oct 19
Waning Gibbous
Oct 21
Last Quarter
Oct 27
New
Nov 4
First Quarter
Nov 12
Full

Hourly Weather History & Observations

Time (PDT) Temp. Windchill Dew Point Humidity Pressure Visibility Wind Dir Wind Speed Gust Speed Precip Events Conditions
12:15 AM 50.0 °F - 46.4 °F 87% 30.04 in 10.0 mi Calm Calm - N/A   Clear
12:35 AM 50.0 °F - 46.4 °F 87% 30.04 in 10.0 mi Calm Calm - N/A   Clear
12:55 AM 50.0 °F - 46.4 °F 87% 30.04 in 10.0 mi SE 3.5 mph - N/A   Clear
1:15 AM 50.0 °F - 46.4 °F 87% 30.03 in 10.0 mi SE 3.5 mph - N/A   Clear
1:35 AM 50.0 °F - 46.4 °F 87% 30.03 in 10.0 mi SE 4.6 mph - N/A   Clear
1:55 AM 50.0 °F - 46.4 °F 87% 30.03 in 10.0 mi SSE 3.5 mph - N/A   Clear
2:15 AM 50.0 °F - 46.4 °F 87% 30.03 in 10.0 mi ESE 4.6 mph - N/A   Clear
2:35 AM 50.0 °F - 46.4 °F 87% 30.03 in 10.0 mi SE 4.6 mph - N/A   Clear
2:55 AM 50.0 °F - 46.4 °F 87% 30.03 in 10.0 mi SE 5.8 mph - N/A   Clear
3:10 AM 50.0 °F - 46.4 °F 87% 30.04 in 10.0 mi SSE 3.5 mph - N/A   Clear
3:35 AM 48.2 °F - 44.6 °F 87% 30.03 in 10.0 mi SSE 4.6 mph - N/A   Clear
3:55 AM 48.2 °F - 44.6 °F 87% 30.03 in 10.0 mi Calm Calm - N/A   Clear
4:15 AM 48.2 °F - 44.6 °F 87% 30.02 in 10.0 mi SE 4.6 mph - N/A   Clear
4:35 AM 48.2 °F - 44.6 °F 87% 30.03 in 10.0 mi SSE 3.5 mph - N/A   Clear
4:55 AM 48.2 °F - 44.6 °F 87% 30.03 in 10.0 mi Calm Calm - N/A   Clear
5:15 AM 48.2 °F - 44.6 °F 87% 30.02 in 10.0 mi South 3.5 mph - N/A   Clear
5:30 AM 48.2 °F - 44.6 °F 87% 30.02 in 10.0 mi Calm Calm - N/A   Clear
5:50 AM 46.4 °F 45.2 °F 44.6 °F 93% 30.03 in 10.0 mi ESE 3.5 mph - N/A   Clear
6:15 AM 48.2 °F - 44.6 °F 87% 30.02 in 10.0 mi South 4.6 mph - N/A   Clear
6:35 AM 48.2 °F - 44.6 °F 87% 30.03 in 10.0 mi Calm Calm - N/A   Clear
6:50 AM 46.4 °F 45.2 °F 44.6 °F 93% 30.03 in 10.0 mi SSE 3.5 mph - N/A   Clear
7:15 AM 48.2 °F - 44.6 °F 87% 30.04 in 9.0 mi Calm Calm - N/A   Clear
7:55 AM 50.0 °F - 44.6 °F 82% 30.05 in 9.0 mi SE 5.8 mph - N/A   Clear
8:15 AM 50.0 °F - 44.6 °F 82% 30.05 in 7.0 mi SSE 6.9 mph - N/A   Clear
8:35 AM 51.8 °F - 46.4 °F 82% 30.05 in 10.0 mi South 5.8 mph - N/A   Clear
8:55 AM 53.6 °F - 46.4 °F 77% 30.06 in 8.0 mi SE 4.6 mph - N/A   Clear
9:15 AM 55.4 °F - 44.6 °F 67% 30.06 in 10.0 mi SSE 6.9 mph - N/A   Clear
9:30 AM 57.2 °F - 44.6 °F 63% 30.07 in 10.0 mi SSE 3.5 mph - N/A   Clear
9:55 AM 59.0 °F - 44.6 °F 59% 30.07 in 10.0 mi South 6.9 mph - N/A   Clear
10:15 AM 62.6 °F - 46.4 °F 55% 30.08 in 10.0 mi SSW 6.9 mph - N/A   Clear
10:35 AM 66.2 °F - 46.4 °F 49% 30.07 in 10.0 mi SSW 9.2 mph - N/A   Partly Cloudy
10:50 AM 66.2 °F - 46.4 °F 49% 30.07 in 10.0 mi SSW 9.2 mph - N/A   Mostly Cloudy
11:15 AM 66.2 °F - 48.2 °F 52% 30.07 in 10.0 mi South 9.2 mph - N/A   Scattered Clouds
11:35 AM 68.0 °F - 48.2 °F 49% 30.07 in 10.0 mi South 8.1 mph - N/A   Scattered Clouds
11:55 AM 66.2 °F - 48.2 °F 52% 30.06 in 10.0 mi South 10.4 mph - N/A   Mostly Cloudy
12:15 PM 68.0 °F - 50.0 °F 52% 30.06 in 10.0 mi SSW 8.1 mph - N/A   Scattered Clouds
12:35 PM 68.0 °F - 50.0 °F 52% 30.06 in 10.0 mi SSW 8.1 mph - N/A   Mostly Cloudy
12:55 PM 71.6 °F - 51.8 °F 50% 30.05 in 10.0 mi South 8.1 mph - N/A   Mostly Cloudy
1:15 PM 71.6 °F - 51.8 °F 50% 30.04 in 10.0 mi SSW 6.9 mph - N/A   Partly Cloudy
1:30 PM 71.6 °F - 53.6 °F 53% 30.02 in 10.0 mi SW 5.8 mph - N/A   Partly Cloudy
1:55 PM 73.4 °F - 53.6 °F 50% 30.02 in 10.0 mi West 9.2 mph - N/A   Mostly Cloudy
2:15 PM 75.2 °F - 53.6 °F 47% 30.01 in 10.0 mi West 9.2 mph - N/A   Scattered Clouds
2:35 PM 75.2 °F - 53.6 °F 47% 30.01 in 10.0 mi West 10.4 mph - N/A   Clear
2:55 PM 75.2 °F - 53.6 °F 47% 30.01 in 10.0 mi West 8.1 mph - N/A   Clear
3:15 PM 75.2 °F - 53.6 °F 47% 30.00 in 10.0 mi WNW 8.1 mph - N/A   Clear
3:35 PM 75.2 °F - 53.6 °F 47% 30.00 in 10.0 mi West 5.8 mph - N/A   Clear
3:50 PM 73.4 °F - 53.6 °F 50% 29.99 in 10.0 mi SW 4.6 mph - N/A   Clear
4:15 PM 73.4 °F - 53.6 °F 50% 30.00 in 10.0 mi WSW 3.5 mph - N/A   Clear
4:30 PM 73.4 °F - 53.6 °F 50% 30.00 in 10.0 mi West 3.5 mph - N/A   Scattered Clouds
4:55 PM 73.4 °F - 55.4 °F 53% 30.00 in 10.0 mi SSW 6.9 mph - N/A   Scattered Clouds
5:15 PM 71.6 °F - 57.2 °F 60% 29.99 in 10.0 mi South 9.2 mph - N/A   Mostly Cloudy
5:35 PM 71.6 °F - 57.2 °F 60% 29.99 in 10.0 mi SSW 9.2 mph - N/A   Mostly Cloudy
5:55 PM 69.8 °F - 57.2 °F 64% 30.00 in 10.0 mi SSW 6.9 mph - N/A   Partly Cloudy
6:15 PM 68.0 °F - 57.2 °F 68% 29.99 in 10.0 mi SSW 6.9 mph - N/A   Clear
6:35 PM 68.0 °F - 55.4 °F 64% 30.00 in 10.0 mi SSW 5.8 mph - N/A   Clear
6:55 PM 66.2 °F - 55.4 °F 68% 30.00 in 10.0 mi SSW 8.1 mph - N/A   Clear
7:15 PM 64.4 °F - 55.4 °F 73% 30.00 in 10.0 mi ESE 10.4 mph - N/A   Clear
7:35 PM 64.4 °F - 55.4 °F 73% 30.01 in 10.0 mi SE 6.9 mph - N/A   Clear
7:55 PM 62.6 °F - 55.4 °F 77% 30.02 in 10.0 mi SSE 3.5 mph - N/A   Clear
8:10 PM 62.6 °F - 55.4 °F 77% 30.02 in 10.0 mi SSE 4.6 mph - N/A   Clear
8:35 PM 60.8 °F - 55.4 °F 82% 30.03 in 10.0 mi Calm Calm - N/A   Clear
8:55 PM 60.8 °F - 55.4 °F 82% 30.03 in 10.0 mi Calm Calm - N/A   Clear
9:10 PM 59.0 °F - 55.4 °F 88% 30.03 in 10.0 mi North 4.6 mph - N/A   Clear
9:30 PM 60.8 °F - 55.4 °F 82% 30.04 in 10.0 mi Calm Calm - N/A   Clear
9:55 PM 59.0 °F - 53.6 °F 82% 30.05 in 10.0 mi NNW 3.5 mph - N/A   Clear
10:10 PM 59.0 °F - 53.6 °F 82% 30.06 in 10.0 mi North 5.8 mph - N/A   Clear
10:35 PM 59.0 °F - 53.6 °F 82% 30.06 in 10.0 mi NNE 4.6 mph - N/A   Clear
10:55 PM 59.0 °F - 53.6 °F 82% 30.06 in 10.0 mi NNW 3.5 mph - N/A   Clear
11:15 PM 57.2 °F - 53.6 °F 88% 30.07 in 10.0 mi WNW 3.5 mph - N/A   Clear
11:35 PM 57.2 °F - 50.0 °F 77% 30.07 in 10.0 mi NW 3.5 mph - N/A   Clear
11:55 PM 57.2 °F - 50.0 °F 77% 30.07 in 10.0 mi Calm Calm - N/A   Clear